• In Uzbekistan
  • List of Countries
  • For 7 days
  • Water Temperature
  • Satellite Maps
  • Weather Map
  • Weather Widgets
  • user-avatar
    Login

    Hourly Weather Tappita

    Today, 17 November, Saturday

    Time Temperature Precipitation Wind Pressure Humidity
    00:00 +23°C° 0 mm 0 mps 738 mmHg 97%
    01:00 +23°C° 0 mm 0 mps 738 mmHg 97%
    02:00 +23°C° 0 mm 0 mps 738 mmHg 98%
    03:00 +22°C° 0 mm 0 mps 738 mmHg 98%
    04:00 +22°C° 0 mm 0 mps 738 mmHg 98%
    05:00 +22°C° 0 mm 0 mps 738 mmHg 98%
    06:00 +24°C° 0 mm 0 mps 738 mmHg 92%
    07:00 +25°C° 0 mm 0 mps 738 mmHg 85%
    08:00 +27°C° 0 mm 0 mps 739 mmHg 79%
    09:00 +29°C° 0 mm 0 mps 738 mmHg 70%
    10:00 +31°C° 0 mm 0 mps 738 mmHg 62%
    11:00 +33°C° 0 mm 1 mps 738 mmHg 58%
    12:00 +33°C° 0.3 mm 1 mps 737 mmHg 60%
    13:00 +33°C° 0.3 mm 1 mps 737 mmHg 61%
    14:00 +31°C° 0.3 mm 0 mps 736 mmHg 63%
    15:00 +31°C° 1.2 mm 1 mps 736 mmHg 73%
    16:00 +29°C° 1.2 mm 1 mps 737 mmHg 82%
    17:00 +27°C° 1.2 mm 1 mps 737 mmHg 92%
    18:00 +26°C° 0.3 mm 1 mps 737 mmHg 93%
    19:00 +26°C° 0.3 mm 1 mps 738 mmHg 95%
    20:00 +25°C° 0.3 mm 1 mps 738 mmHg 96%
    21:00 +25°C° 0.1 mm 1 mps 738 mmHg 96%
    22:00 +25°C° 0.1 mm 1 mps 738 mmHg 97%
    23:00 +22°C° 0.1 mm 0 mps 738 mmHg 97%

    Tomorrow, 18 November, Sunday

    Time Temperature Precipitation Wind Pressure Humidity
    00:00 +22°C° 0.2 mm 0 mps 738 mmHg 98%
    01:00 +22°C° 0.2 mm 0 mps 737 mmHg 98%
    02:00 +22°C° 0.2 mm 0 mps 737 mmHg 98%
    03:00 +22°C° 0 mm 0 mps 737 mmHg 98%
    04:00 +22°C° 0 mm 0 mps 737 mmHg 98%
    05:00 +22°C° 0 mm 0 mps 737 mmHg 98%
    06:00 +23°C° 0 mm 0 mps 738 mmHg 93%
    07:00 +24°C° 0 mm 0 mps 738 mmHg 87%
    08:00 +26°C° 0 mm 0 mps 739 mmHg 82%
    09:00 +28°C° 0 mm 0 mps 738 mmHg 72%
    10:00 +31°C° 0 mm 0 mps 738 mmHg 62%
    11:00 +33°C° 0 mm 0 mps 738 mmHg 51%
    12:00 +33°C° 0 mm 0 mps 737 mmHg 50%
    13:00 +33°C° 0 mm 0 mps 736 mmHg 48%
    14:00 +33°C° 0 mm 0 mps 735 mmHg 46%
    15:00 +31°C° 0 mm 0 mps 735 mmHg 54%
    16:00 +31°C° 0 mm 1 mps 735 mmHg 62%
    17:00 +29°C° 0 mm 1 mps 735 mmHg 69%
    18:00 +28°C° 0.3 mm 1 mps 736 mmHg 76%
    19:00 +27°C° 0.3 mm 1 mps 737 mmHg 82%
    20:00 +26°C° 0.3 mm 1 mps 737 mmHg 89%
    21:00 +26°C° 0.1 mm 1 mps 737 mmHg 91%
    22:00 +25°C° 0.1 mm 1 mps 737 mmHg 93%
    23:00 +25°C° 0.1 mm 1 mps 737 mmHg 95%

    Day after tomorrow, 19 November, Monday

    Time Temperature Precipitation Wind Pressure Humidity
    00:00 +25°C° 0 mm 1 mps 737 mmHg 96%
    01:00 +23°C° 0 mm 0 mps 737 mmHg 96%
    02:00 +23°C° 0 mm 0 mps 737 mmHg 97%
    03:00 +22°C° 0 mm 0 mps 737 mmHg 97%
    04:00 +22°C° 0 mm 0 mps 737 mmHg 97%
    05:00 +22°C° 0 mm 0 mps 737 mmHg 98%
    06:00 +23°C° 0 mm 0 mps 737 mmHg 92%
    07:00 +25°C° 0 mm 0 mps 738 mmHg 87%
    08:00 +26°C° 0 mm 0 mps 738 mmHg 81%
    09:00 +28°C° 0 mm 0 mps 738 mmHg 73%
    10:00 +29°C° 0 mm 0 mps 738 mmHg 66%
    11:00 +31°C° 0 mm 0 mps 737 mmHg 58%
    12:00 +31°C° 0.1 mm 0 mps 737 mmHg 58%
    13:00 +31°C° 0.1 mm 0 mps 736 mmHg 59%
    14:00 +31°C° 0.1 mm 0 mps 735 mmHg 59%
    15:00 +31°C° 1 mm 1 mps 735 mmHg 70%
    16:00 +29°C° 1 mm 1 mps 736 mmHg 80%
    17:00 +27°C° 1 mm 1 mps 736 mmHg 91%
    18:00 +26°C° 0.6 mm 1 mps 736 mmHg 92%
    19:00 +26°C° 0.6 mm 1 mps 737 mmHg 93%
    20:00 +25°C° 0.6 mm 1 mps 738 mmHg 95%
    21:00 +25°C° 0 mm 1 mps 738 mmHg 95%
    22:00 +23°C° 0 mm 0 mps 738 mmHg 96%
    23:00 +22°C° 0 mm 0 mps 738 mmHg 96%

    20 November, Tuesday

    Time Temperature Precipitation Wind Pressure Humidity
    00:00 +22°C° 0 mm 0 mps 737 mmHg 96%
    01:00 +22°C° 0 mm 0 mps 737 mmHg 97%
    02:00 +22°C° 0 mm 0 mps 736 mmHg 97%
    03:00 +22°C° 0.1 mm 0 mps 736 mmHg 97%
    04:00 +22°C° 0.1 mm 0 mps 736 mmHg 98%
    05:00 +21°C° 0.1 mm 0 mps 737 mmHg 98%
    06:00 +23°C° 0.1 mm 0 mps 737 mmHg 94%
    07:00 +24°C° 0.1 mm 0 mps 738 mmHg 89%
    08:00 +25°C° 0.1 mm 0 mps 738 mmHg 85%
    09:00 +29°C° 0.1 mm 1 mps 738 mmHg 75%
    10:00 +31°C° 0.1 mm 1 mps 738 mmHg 65%
    11:00 +32°C° 0.1 mm 1 mps 738 mmHg 55%
    12:00 +33°C° 0 mm 1 mps 737 mmHg 52%
    13:00 +34°C° 0 mm 1 mps 737 mmHg 50%
    14:00 +34°C° 0 mm 1 mps 736 mmHg 47%
    15:00 +33°C° 0.1 mm 1 mps 736 mmHg 54%
    16:00 +29°C° 0.1 mm 0 mps 736 mmHg 61%
    17:00 +27°C° 0.1 mm 0 mps 736 mmHg 68%
    18:00 +26°C° 0.1 mm 0 mps 737 mmHg 73%
    19:00 +25°C° 0.1 mm 0 mps 737 mmHg 78%
    20:00 +24°C° 0.1 mm 0 mps 738 mmHg 83%
    21:00 +24°C° 0 mm 0 mps 738 mmHg 84%
    22:00 +24°C° 0 mm 0 mps 738 mmHg 85%
    23:00 +24°C° 0 mm 0 mps 738 mmHg 86%

    21 November, Wednesday

    Time Temperature Precipitation Wind Pressure Humidity
    00:00 +23°C° 0 mm 0 mps 737 mmHg 88%
    01:00 +23°C° 0 mm 0 mps 737 mmHg 90%
    02:00 +23°C° 0 mm 0 mps 736 mmHg 91%
    03:00 +23°C° 0 mm 0 mps 737 mmHg 92%
    04:00 +23°C° 0 mm 0 mps 737 mmHg 93%
    05:00 +23°C° 0 mm 0 mps 737 mmHg 94%
    06:00 +24°C° 0 mm 0 mps 738 mmHg 89%
    07:00 +25°C° 0 mm 0 mps 738 mmHg 83%
    08:00 +26°C° 0 mm 0 mps 739 mmHg 78%
    09:00 +29°C° 0 mm 0 mps 738 mmHg 68%
    10:00 +31°C° 0 mm 0 mps 738 mmHg 58%
    11:00 +34°C° 0 mm 0 mps 738 mmHg 48%
    12:00 +34°C° 0 mm 0 mps 737 mmHg 47%
    13:00 +34°C° 0 mm 0 mps 736 mmHg 45%
    14:00 +35°C° 0 mm 1 mps 736 mmHg 43%
    15:00 +33°C° 0.2 mm 1 mps 736 mmHg 52%
    16:00 +32°C° 0.2 mm 1 mps 736 mmHg 61%
    17:00 +30°C° 0.2 mm 1 mps 736 mmHg 69%
    18:00 +28°C° 0.7 mm 1 mps 737 mmHg 77%
    19:00 +27°C° 0.7 mm 1 mps 737 mmHg 84%
    20:00 +26°C° 0.7 mm 1 mps 738 mmHg 92%
    21:00 +26°C° 0.1 mm 1 mps 738 mmHg 94%
    22:00 +25°C° 0.1 mm 1 mps 738 mmHg 95%
    23:00 +25°C° 0.1 mm 1 mps 737 mmHg 97%

    22 November, Thursday

    Time Temperature Precipitation Wind Pressure Humidity
    00:00 +25°C° 0 mm 1 mps 737 mmHg 97%
    01:00 +25°C° 0 mm 1 mps 737 mmHg 98%
    02:00 +22°C° 0 mm 0 mps 736 mmHg 99%
    03:00 +23°C° 0 mm 0 mps 736 mmHg 98%
    04:00 +23°C° 0 mm 0 mps 737 mmHg 98%
    05:00 +23°C° 0 mm 0 mps 737 mmHg 97%
    06:00 +24°C° 0 mm 0 mps 738 mmHg 93%
    07:00 +25°C° 0 mm 0 mps 738 mmHg 89%
    08:00 +28°C° 0 mm 1 mps 739 mmHg 85%
    09:00 +28°C° 0 mm 0 mps 738 mmHg 75%
    10:00 +30°C° 0 mm 0 mps 738 mmHg 66%
    11:00 +32°C° 0 mm 0 mps 738 mmHg 57%
    12:00 +32°C° 0 mm 0 mps 737 mmHg 54%
    13:00 +33°C° 0 mm 0 mps 736 mmHg 50%
    14:00 +33°C° 0 mm 0 mps 735 mmHg 47%
    15:00 +31°C° 0.1 mm 0 mps 735 mmHg 55%
    16:00 +29°C° 0.1 mm 0 mps 736 mmHg 62%
    17:00 +30°C° 0.1 mm 1 mps 736 mmHg 70%
    18:00 +28°C° 0.2 mm 1 mps 736 mmHg 76%
    19:00 +27°C° 0.2 mm 1 mps 737 mmHg 82%
    20:00 +26°C° 0.2 mm 1 mps 737 mmHg 87%
    21:00 +26°C° 0 mm 1 mps 737 mmHg 91%
    22:00 +25°C° 0 mm 1 mps 737 mmHg 94%
    23:00 +23°C° 0 mm 0 mps 737 mmHg 97%
    Show more